N0EDB-13 Weather Reports


time (UTC)temp
C
wind
direction
speed
KPH
gust
KPH
rain 1hr
cm
rain 24hr
cm
rain mn
cm
humidity
%
barometer
mb
20260906214728 32 128 1.6 4.8 0.00 0.00 0.00 34 1442.1
20260906214228 32 307 3.2 4.8 0.00 0.00 0.00 35 1443.6
20260906213727 31 302 1.6 3.2 0.00 0.00 0.00 36 1445.1
20260906213227 31 270 1.6 4.8 0.00 0.00 0.00 37 1446.5
20260906212726 31 0 0.0 0.0 0.00 0.00 0.00 38 1447.0
20260906212226 31 328 1.6 4.8 0.00 0.00 0.00 37 1447.1
20260906211725 31 0 0.0 0.0 0.00 0.00 0.00 39 1447.2
20260906211224 31 189 0.0 1.6 0.00 0.00 0.00 38 1446.9
20260906210724 31 112 3.2 4.8 0.00 0.00 0.00 38 1446.4
20260906210223 31 165 0.0 3.2 0.00 0.00 0.00 37 1446.1
20260906205722 31 202 0.0 3.2 0.00 0.00 0.00 37 1445.8
20260906205221 32 69 1.6 6.4 0.00 0.00 0.00 37 1445.2
20260906204720 32 86 1.6 4.8 0.00 0.00 0.00 36 1444.7
20260906204220 33 84 3.2 8.0 0.00 0.00 0.00 35 1443.1
20260906203720 33 107 0.0 4.8 0.00 0.00 0.00 30 1442.0
20260906203219 33 88 1.6 3.2 0.00 0.00 0.00 33 1442.5
20260906202719 33 155 1.6 4.8 0.00 0.00 0.00 34 1443.0
20260906202218 33 277 1.6 6.4 0.00 0.00 0.00 34 1443.2
20260906201718 32 86 0.0 0.0 0.00 0.00 0.00 33 1444.2
20260906201216 32 291 1.6 4.8 0.00 0.00 0.00 33 1445.2
20260906200716 32 240 3.2 11.3 0.00 0.00 0.00 32 1445.3
20260906200216 32 292 3.2 6.4 0.00 0.00 0.00 33 1445.2
20260906195715 32 242 1.6 4.8 0.00 0.00 0.00 33 1444.8
20260906195214 32 287 1.6 8.0 0.00 0.00 0.00 35 1445.6
20260906194714 31 328 3.2 8.0 0.00 0.00 0.00 35 1446.7
20260906194214 31 285 3.2 4.8 0.00 0.00 0.00 38 1447.3
20260906193712 31 347 3.2 6.4 0.00 0.00 0.00 38 1447.6
20260906193212 31 314 3.2 6.4 0.00 0.00 0.00 40 1447.3
20260906192711 31 327 3.2 6.4 0.00 0.00 0.00 38 1447.2
20260906192210 31 316 1.6 3.2 0.00 0.00 0.00 40 1447.8
20260906191710 31 96 1.6 3.2 0.00 0.00 0.00 40 1448.4
20260906191209 31 74 3.2 8.0 0.00 0.00 0.00 42 1449.0
20260906190707 30 353 0.0 3.2 0.00 0.00 0.00 43 1450.2
20260906190206 30 51 1.6 4.8 0.00 0.00 0.00 44 1451.4
20260906185705 30 96 3.2 6.4 0.00 0.00 0.00 45 1452.3
20260906185205 29 138 1.6 3.2 0.00 0.00 0.00 47 1454.0
20260906184703 29 96 3.2 6.4 0.00 0.00 0.00 48 1454.4
20260906184203 29 67 3.2 8.0 0.00 0.00 0.00 47 1453.6
20260906183702 29 74 1.6 4.8 0.00 0.00 0.00 47 1454.1
20260906183202 29 94 3.2 6.4 0.00 0.00 0.00 47 1454.2
20260906182702 29 100 3.2 4.8 0.00 0.00 0.00 48 1454.9
20260906182201 28 52 1.6 6.4 0.00 0.00 0.00 49 1455.7
20260906181700 28 0 0.0 0.0 0.00 0.00 0.00 49 1456.6
20260906181200 28 294 1.6 4.8 0.00 0.00 0.00 50 1457.7
20260906180658 27 336 1.6 3.2 0.00 0.00 0.00 52 1459.0
20260906180157 27 281 3.2 4.8 0.00 0.00 0.00 53 1459.3
20260906175657 27 286 4.8 6.4 0.00 0.00 0.00 52 1459.8
20260906175157 27 57 1.6 4.8 0.00 0.00 0.00 53 1460.9
20260906174656 27 273 1.6 4.8 0.00 0.00 0.00 53 1461.6
20260906174155 26 287 3.2 8.0 0.00 0.00 0.00 54 1462.3
20260906173654 26 258 1.6 4.8 0.00 0.00 0.00 55 1462.9
20260906173153 26 104 4.8 8.0 0.00 0.00 0.00 55 1463.4
20260906172653 26 212 3.2 6.4 0.00 0.00 0.00 56 1463.3
20260906172152 26 256 3.2 8.0 0.00 0.00 0.00 57 1462.4
20260906171652 27 297 1.6 3.2 0.00 0.00 0.00 55 1462.1
20260906171151 26 351 1.6 4.8 0.00 0.00 0.00 54 1463.5
20260906170648 26 306 0.0 3.2 0.00 0.00 0.00 56 1465.6
20260906170147 25 291 0.0 1.6 0.00 0.00 0.00 59 1467.1
20260906165647 25 286 1.6 6.4 0.00 0.00 0.00 60 1467.9
20260906165146 24 273 3.2 6.4 0.00 0.00 0.00 62 1469.1
20260906164645 24 248 1.6 6.4 0.00 0.00 0.00 61 1469.3
20260906164145 24 306 0.0 1.6 0.00 0.00 0.00 62 1470.0
20260906163644 24 0 0.0 0.0 0.00 0.00 0.00 61 1470.3
20260906163144 23 340 1.6 4.8 0.00 0.00 0.00 62 1470.5
20260906162643 23 258 1.6 6.4 0.00 0.00 0.00 62 1471.1
20260906162142 23 327 3.2 4.8 0.00 0.00 0.00 63 1472.1
20260906161642 22 260 0.0 3.2 0.00 0.00 0.00 66 1473.5
20260906161141 22 293 3.2 8.0 0.00 0.00 0.00 67 1474.4
20260906160641 22 278 3.2 8.0 0.00 0.00 0.00 68 1475.5
20260906160141 21 288 3.2 6.4 0.00 0.00 0.00 69 1476.1
20260906155640 21 297 1.6 4.8 0.00 0.00 0.00 70 1476.8
20260906155140 21 278 3.2 6.4 0.00 0.00 0.00 71 1477.7
20260906154634 21 320 1.6 4.8 0.00 0.00 0.00 71 1478.3
20260906154134 21 311 1.6 3.2 0.00 0.00 0.00 73 1479.1
20260906153632 20 262 0.0 3.2 0.00 0.00 0.00 73 1479.5
20260906153132 20 282 3.2 6.4 0.00 0.00 0.00 74 1480.0
20260906152632 20 273 3.2 4.8 0.00 0.00 0.00 75 1480.8
20260906152132 20 325 0.0 1.6 0.00 0.00 0.00 76 1481.4
20260906151631 20 328 0.0 3.2 0.00 0.00 0.00 76 1481.7
20260906151130 20 280 1.6 4.8 0.00 0.00 0.00 77 1482.3
20260906150629 19 324 1.6 4.8 0.00 0.00 0.00 77 1482.9
20260906150129 19 320 1.6 3.2 0.00 0.00 0.00 78 1483.3
20260906145629 19 284 3.2 4.8 0.00 0.00 0.00 78 1483.3
20260906145128 19 295 1.6 4.8 0.00 0.00 0.00 78 1483.5
20260906144628 19 297 3.2 8.0 0.00 0.00 0.00 78 1483.9
20260906144127 18 334 3.2 4.8 0.00 0.00 0.00 80 1484.7
20260906143627 18 293 3.2 4.8 0.00 0.00 0.00 80 1485.1
20260906143127 18 65 0.0 1.6 0.00 0.00 0.00 80 1485.7
20260906142626 18 310 1.6 3.2 0.00 0.00 0.00 81 1486.3
20260906142126 18 285 1.6 6.4 0.00 0.00 0.00 81 1486.7
20260906141625 17 279 1.6 4.8 0.00 0.00 0.00 82 1487.0
20260906141124 17 273 1.6 4.8 0.00 0.00 0.00 82 1487.5
20260906140623 17 283 0.0 1.6 0.00 0.00 0.00 82 1487.6
20260906140122 17 302 1.6 3.2 0.00 0.00 0.00 82 1487.8
20260906135621 17 273 1.6 3.2 0.00 0.00 0.00 83 1488.4
20260906135120 17 277 0.0 1.6 0.00 0.00 0.00 83 1489.0
20260906134619 17 262 0.0 3.2 0.00 0.00 0.00 83 1489.5
20260906134118 16 288 0.0 0.0 0.00 0.00 0.00 83 1489.8
20260906133618 16 0 0.0 0.0 0.00 0.00 0.00 84 1490.0
20260906133117 16 302 0.0 1.6 0.00 0.00 0.00 84 1490.1
20260906132616 16 302 1.6 3.2 0.00 0.00 0.00 84 1490.5
20260906132116 16 252 0.0 3.2 0.00 0.00 0.00 84 1490.9
20260906131614 16 242 0.0 1.6 0.00 0.00 0.00 85 1491.6
20260906131114 16 0 0.0 0.0 0.00 0.00 0.00 85 1492.3
20260906130614 15 200 0.0 1.6 0.00 0.00 0.00 86 1493.0
20260906130114 15 0 0.0 0.0 0.00 0.00 0.00 85 1493.2
20260906125613 15 0 0.0 0.0 0.00 0.00 0.00 85 1493.5
20260906125113 15 0 0.0 0.0 0.00 0.00 0.00 85 1493.7
20260906124612 15 0 0.0 0.0 0.00 0.00 0.00 85 1493.7
20260906124111 15 232 0.0 1.6 0.00 0.00 0.00 85 1494.0
20260906123611 15 196 0.0 1.6 0.00 0.00 0.00 84 1494.1
20260906123110 15 304 0.0 1.6 0.00 0.00 0.00 85 1494.4
20260906122609 15 0 0.0 0.0 0.00 0.00 0.00 83 1494.3
20260906122109 15 0 0.0 0.0 0.00 0.00 0.00 83 1493.6
20260906121608 15 0 0.0 0.0 0.00 0.00 0.00 83 1493.4
20260906121107 15 0 0.0 0.0 0.00 0.00 0.00 83 1493.2
20260906120607 15 0 0.0 0.0 0.00 0.00 0.00 82 1492.9
20260906120107 15 0 0.0 0.0 0.00 0.00 0.00 83 1492.5
20260906115606 15 0 0.0 0.0 0.00 0.00 0.00 83 1492.3
20260906115105 15 291 0.0 1.6 0.00 0.00 0.00 83 1492.3
20260906114604 16 0 0.0 0.0 0.00 0.00 0.00 82 1492.1
20260906114104 16 0 0.0 0.0 0.00 0.00 0.00 82 1491.7
20260906113603 16 0 0.0 0.0 0.00 0.00 0.00 82 1491.5
20260906113103 16 284 0.0 1.6 0.00 0.00 0.00 82 1491.5
20260906112602 16 0 0.0 0.0 0.00 0.00 0.00 81 1491.2
20260906112102 16 286 0.0 1.6 0.00 0.00 0.00 81 1491.0
20260906111601 16 0 0.0 0.0 0.00 0.00 0.00 81 1491.0
20260906111100 16 288 0.0 1.6 0.00 0.00 0.00 82 1491.3
20260906110559 16 0 0.0 0.0 0.00 0.00 0.00 83 1492.0
20260906110059 16 0 0.0 0.0 0.00 0.00 0.00 82 1491.7
20260906105559 16 319 0.0 1.6 0.00 0.00 0.00 83 1491.6
20260906105057 16 0 0.0 0.0 0.00 0.00 0.00 83 1491.7
20260906104556 16 0 0.0 0.0 0.00 0.00 0.00 82 1491.5
20260906104055 16 0 0.0 0.0 0.00 0.00 0.00 81 1490.9
20260906103554 16 0 0.0 0.0 0.00 0.00 0.00 81 1490.4
20260906103054 16 231 0.0 1.6 0.00 0.00 0.00 81 1489.6
20260906102554 16 0 0.0 0.0 0.00 0.00 0.00 80 1488.8
20260906102054 17 0 0.0 0.0 0.00 0.00 0.00 79 1488.3
20260906101553 17 0 0.0 0.0 0.00 0.00 0.00 79 1487.9
20260906101053 17 0 0.0 0.0 0.00 0.00 0.00 78 1487.4
20260906100553 17 303 0.0 1.6 0.00 0.00 0.00 78 1486.6
20260906100053 18 0 0.0 0.0 0.00 0.00 0.00 76 1485.6
20260906095552 18 0 0.0 0.0 0.00 0.00 0.00 78 1485.0
20260906095052 18 0 0.0 0.0 0.00 0.00 0.00 77 1484.5
20260906094551 18 0 0.0 0.0 0.00 0.00 0.00 76 1484.0
20260906094050 18 0 0.0 0.0 0.00 0.00 0.00 75 1483.5
20260906093550 18 327 0.0 3.2 0.00 0.00 0.00 75 1483.3
20260906093049 18 320 1.6 3.2 0.00 0.00 0.00 75 1483.1
20260906092549 18 336 0.0 3.2 0.00 0.00 0.00 74 1482.8
20260906092049 18 282 3.2 4.8 0.00 0.00 0.00 73 1482.6
20260906091548 18 269 3.2 6.4 0.00 0.00 0.00 71 1482.5
20260906091047 18 285 1.6 4.8 0.00 0.00 0.00 70 1482.1
20260906090546 19 300 1.6 4.8 0.00 0.00 0.00 70 1481.5
20260906090045 19 291 1.6 4.8 0.00 0.00 0.00 70 1480.9
20260906085545 19 313 1.6 4.8 0.00 0.00 0.00 70 1480.6
20260906085044 19 311 1.6 4.8 0.00 0.00 0.00 70 1480.4
20260906084543 19 311 0.0 1.6 0.00 0.00 0.00 70 1479.9
20260906084043 20 290 1.6 4.8 0.00 0.00 0.00 69 1479.6
20260906083542 20 284 3.2 9.7 0.00 0.00 0.00 69 1479.5
20260906083042 20 309 1.6 4.8 0.00 0.00 0.00 69 1479.5
20260906082542 20 291 3.2 8.0 0.00 0.00 0.00 69 1479.4
20260906082041 20 292 4.8 9.7 0.00 0.00 0.00 69 1479.5
20260906081541 20 303 3.2 6.4 0.00 0.00 0.00 69 1479.5
20260906081040 20 295 3.2 6.4 0.00 0.00 0.00 68 1479.7
20260906080540 20 309 3.2 6.4 0.00 0.00 0.00 68 1479.5
20260906080039 20 300 3.2 6.4 0.00 0.00 0.00 67 1479.3
20260906075539 20 305 4.8 8.0 0.00 0.00 0.00 67 1479.3
20260906075038 20 311 3.2 8.0 0.00 0.00 0.00 66 1479.6
20260906074538 19 285 3.2 4.8 0.00 0.00 0.00 65 1480.4
20260906074037 19 318 1.6 3.2 0.00 0.00 0.00 64 1481.1
20260906073537 19 289 1.6 3.2 0.00 0.00 0.00 64 1481.2
20260906073036 19 307 1.6 4.8 0.00 0.00 0.00 63 1481.1
20260906072535 19 293 1.6 3.2 0.00 0.00 0.00 62 1480.5
20260906072034 20 284 1.6 4.8 0.00 0.00 0.00 61 1479.7
20260906071533 20 269 1.6 4.8 0.00 0.00 0.00 58 1479.0
20260906071033 20 272 3.2 6.4 0.00 0.00 0.00 57 1478.3
20260906070532 20 295 1.6 6.4 0.00 0.00 0.00 54 1477.4
20260906070029 21 276 0.0 3.2 0.00 0.00 0.00 52 1476.8
20260906065529 21 231 3.2 4.8 0.00 0.00 0.00 51 1476.5
20260906065028 21 300 1.6 3.2 0.00 0.00 0.00 51 1476.5
20260906064528 21 266 1.6 6.4 0.00 0.00 0.00 51 1476.8
20260906064028 21 262 1.6 3.2 0.00 0.00 0.00 52 1476.9
20260906063526 21 248 0.0 3.2 0.00 0.00 0.00 53 1476.5
20260906063025 21 286 0.0 1.6 0.00 0.00 0.00 53 1476.1
20260906062524 21 301 1.6 3.2 0.00 0.00 0.00 54 1476.3
20260906062023 21 274 0.0 1.6 0.00 0.00 0.00 55 1476.4
20260906061523 21 235 0.0 1.6 0.00 0.00 0.00 54 1476.8
20260906061022 20 299 1.6 3.2 0.00 0.00 0.00 55 1477.1
20260906060522 20 259 0.0 1.6 0.00 0.00 0.00 56 1477.1
20260906060021 21 0 0.0 0.0 0.00 0.00 0.00 55 1476.1
20260906055521 21 0 0.0 0.0 0.00 0.00 0.00 53 1475.5
20260906055020 21 0 0.0 0.0 0.00 0.00 0.00 53 1475.3
20260906054519 21 0 0.0 0.0 0.00 0.00 0.00 52 1474.8
20260906054018 21 124 0.0 1.6 0.00 0.00 0.00 51 1474.8
20260906053517 21 118 4.8 8.0 0.00 0.00 0.00 50 1475.3
20260906053017 21 129 3.2 4.8 0.00 0.00 0.00 50 1475.8
20260906052516 21 123 0.0 1.6 0.00 0.00 0.00 50 1476.1
20260906052015 21 0 0.0 0.0 0.00 0.00 0.00 51 1476.1
20260906051514 21 0 0.0 0.0 0.00 0.00 0.00 50 1475.8
20260906051014 21 201 0.0 1.6 0.00 0.00 0.00 50 1475.8
20260906050513 21 0 0.0 0.0 0.00 0.00 0.00 50 1476.4
20260906050012 20 167 1.6 4.8 0.00 0.00 0.00 50 1477.8
20260906045511 20 139 3.2 6.4 0.00 0.00 0.00 53 1479.9
20260906045010 20 0 0.0 0.0 0.00 0.00 0.00 54 1479.2
20260906044510 20 0 0.0 0.0 0.00 0.00 0.00 54 1477.7
20260906044009 21 0 0.0 0.0 0.00 0.00 0.00 52 1475.9
20260906043508 21 0 0.0 0.0 0.00 0.00 0.00 50 1474.5
20260906043007 21 0 0.0 0.0 0.00 0.00 0.00 50 1473.8
20260906042507 21 0 0.0 0.0 0.00 0.00 0.00 48 1473.3
20260906042007 22 0 0.0 0.0 0.00 0.00 0.00 48 1472.8
20260906041506 22 0 0.0 0.0 0.00 0.00 0.00 47 1472.3
20260906041005 22 0 0.0 0.0 0.00 0.00 0.00 47 1472.0
20260906040505 22 105 0.0 3.2 0.00 0.00 0.00 46 1471.6
20260906040003 22 302 1.6 3.2 0.00 0.00 0.00 47 1471.7
20260906035502 22 333 1.6 3.2 0.00 0.00 0.00 46 1472.0
20260906035002 22 0 0.0 0.0 0.00 0.00 0.00 46 1470.8
20260906034502 23 0 0.0 0.0 0.00 0.00 0.00 44 1469.6
20260906034002 23 0 0.0 0.0 0.00 0.00 0.00 43 1468.4
20260906033500 23 0 0.0 0.0 0.00 0.00 0.00 42 1467.0
20260906032959 24 0 0.0 0.0 0.00 0.00 0.00 41 1466.1
20260906032459 24 287 1.6 3.2 0.00 0.00 0.00 40 1466.2
20260906031959 24 303 1.6 4.8 0.00 0.00 0.00 41 1466.3
20260906031458 24 291 0.0 1.6 0.00 0.00 0.00 41 1465.4
20260906030957 25 267 0.0 1.6 0.00 0.00 0.00 40 1464.2
20260906030457 25 297 1.6 4.8 0.00 0.00 0.00 39 1463.3
20260906025957 25 288 3.2 4.8 0.00 0.00 0.00 38 1462.8
20260906025456 25 313 1.6 4.8 0.00 0.00 0.00 36 1462.9
20260906024955 25 322 0.0 1.6 0.00 0.00 0.00 37 1463.1
20260906024455 25 325 0.0 3.2 0.00 0.00 0.00 37 1463.5
20260906023954 25 295 1.6 4.8 0.00 0.00 0.00 38 1464.0
20260906023453 25 293 3.2 4.8 0.00 0.00 0.00 39 1463.2
20260906022953 25 270 3.2 4.8 0.00 0.00 0.00 38 1462.2
20260906022452 25 265 1.6 3.2 0.00 0.00 0.00 37 1461.7
20260906021952 25 322 3.2 6.4 0.00 0.00 0.00 37 1462.0
20260906021451 25 275 1.6 3.2 0.00 0.00 0.00 37 1461.4
20260906020950 26 267 1.6 3.2 0.00 0.00 0.00 37 1460.8
20260906020450 26 280 3.2 4.8 0.00 0.00 0.00 36 1460.5
20260906015950 26 274 1.6 6.4 0.00 0.00 0.00 36 1460.1
20260906015449 26 267 1.6 4.8 0.00 0.00 0.00 36 1459.5
20260906014948 26 269 1.6 3.2 0.00 0.00 0.00 36 1458.8
20260906014448 27 279 1.6 4.8 0.00 0.00 0.00 35 1457.8
20260906013946 27 269 3.2 8.0 0.00 0.00 0.00 34 1456.6
20260906013445 27 283 3.2 4.8 0.00 0.00 0.00 33 1455.2
20260906012944 28 252 4.8 6.4 0.00 0.00 0.00 31 1454.4
20260906012443 28 245 4.8 9.7 0.00 0.00 0.00 31 1454.2
20260906011942 28 268 4.8 8.0 0.00 0.00 0.00 31 1453.5
20260906011441 28 264 4.8 8.0 0.00 0.00 0.00 31 1452.4
20260906010941 29 273 4.8 9.7 0.00 0.00 0.00 30 1451.4
20260906010441 30 254 4.8 6.4 0.00 0.00 0.00 29 1450.5
20260906005940 30 257 6.4 8.0 0.00 0.00 0.00 28 1449.8
20260906005439 30 252 4.8 9.7 0.00 0.00 0.00 28 1449.0
20260906004938 30 235 6.4 8.0 0.00 0.00 0.00 27 1448.3
20260906004438 31 263 6.4 8.0 0.00 0.00 0.00 27 1447.7
20260906003937 31 261 4.8 9.7 0.00 0.00 0.00 26 1447.1
20260906003437 31 269 3.2 4.8 0.00 0.00 0.00 26 1446.3
20260906002936 31 251 3.2 4.8 0.00 0.00 0.00 25 1445.8
20260906002435 31 247 3.2 4.8 0.00 0.00 0.00 25 1445.4
20260906001935 32 251 3.2 4.8 0.00 0.00 0.00 25 1445.0
20260906001434 32 260 4.8 6.4 0.00 0.00 0.00 24 1444.7
20260906000934 32 254 4.8 9.7 0.00 0.00 0.00 24 1444.5
20260906000433 32 235 4.8 6.4 0.00 0.00 0.00 24 1444.2
20260905235933 32 269 1.6 3.2 0.00 0.00 0.00 27 1443.8
20260905235433 32 244 1.6 3.2 0.00 0.00 0.00 25 1443.2
20260905234933 32 262 1.6 3.2 0.00 0.00 0.00 25 1442.8
20260905234433 33 268 1.6 3.2 0.00 0.00 0.00 24 1442.1
20260905233932 33 288 3.2 4.8 0.00 0.00 0.00 24 1440.8
20260905233431 34 283 3.2 4.8 0.00 0.00 0.00 23 1439.3
20260905232930 35 289 3.2 4.8 0.00 0.00 0.00 22 1437.3
20260905232430 36 291 1.6 3.2 0.00 0.00 0.00 22 1435.4
20260905231929 36 302 1.6 4.8 0.00 0.00 0.00 22 1434.7
20260905231429 36 283 3.2 6.4 0.00 0.00 0.00 22 1434.5
20260905230928 36 279 4.8 9.7 0.00 0.00 0.00 23 1433.4
20260905230427 36 271 1.6 4.8 0.00 0.00 0.00 23 1433.2
20260905225927 36 359 3.2 4.8 0.00 0.00 0.00 21 1433.7
20260905225426 36 95 1.6 3.2 0.00 0.00 0.00 21 1433.9
20260905224926 36 0 0.0 0.0 0.00 0.00 0.00 22 1433.9
20260905224425 36 80 1.6 4.8 0.00 0.00 0.00 20 1433.5
20260905223923 36 110 1.6 4.8 0.00 0.00 0.00 21 1434.2
20260905223423 36 313 1.6 3.2 0.00 0.00 0.00 22 1434.8
20260905222923 36 242 0.0 3.2 0.00 0.00 0.00 22 1435.2
20260905222422 36 278 4.8 8.0 0.00 0.00 0.00 22 1434.9
20260905221922 36 271 1.6 4.8 0.00 0.00 0.00 22 1434.9
20260905221420 36 107 1.6 4.8 0.00 0.00 0.00 21 1434.3
20260905220920 36 270 0.0 3.2 0.00 0.00 0.00 21 1433.2
20260905220419 36 276 1.6 4.8 0.00 0.00 0.00 21 1433.5
20260905215918 36 59 1.6 8.0 0.00 0.00 0.00 21 1433.8
20260905215418 36 296 0.0 1.6 0.00 0.00 0.00 22 1434.6